Waarnemingen

Advertentie
Mijn weer
Berus, Duitsland (10704): temperatuur & dauwpunt: 20.05.2017 16:00:00 - 26.05.2017 16:00:00 (CEST)Berus, Duitsland (10704): temperatuur 5cm & temperatuur -5cm: 20.05.2017 16:00:00 - 26.05.2017 16:00:00 (CEST)Berus, Duitsland (10704): temperatuur -20cm & temperatuur -100cm: 20.05.2017 16:00:00 - 26.05.2017 16:00:00 (CEST)Berus, Duitsland (10704): windsnelheid & windstoten: 20.05.2017 16:00:00 - 26.05.2017 16:00:00 (CEST)Berus, Duitsland (10704): windrichting: 20.05.2017 16:00:00 - 26.05.2017 16:00:00 (CEST)Berus, Duitsland (10704): luchtdruk: 20.05.2017 16:00:00 - 26.05.2017 16:00:00 (CEST)Berus, Duitsland (10704): zicht: 20.05.2017 16:00:00 - 26.05.2017 16:00:00 (CEST)Berus, Duitsland (10704): Zonneschijnduur: 20.05.2017 16:00:00 - 26.05.2017 16:00:00 (CEST)
Datum & Tijd tt [°C] td [°C] tt 5cm [°C] tt -5cm [°C] tt -20cm [°C] tt -100cm [°C] ff [km/u] ff [kn] fx [km/u] fx [kn] dd ppp [hPa] vv [km] sd [min]
26.05.2017 16:00:00 25,8 10,6 30,5 33,5 23,7 15,2 16 9 42 23 ONO 1017,2 44 60
26.05.2017 15:00:00 24,8 9,0 29,0 32,6 22,8 15,2 20 11 41 22 ONO 1017,7 42 60
26.05.2017 14:00:00 24,2 9,7 29,5 31,0 21,8 15,2 21 11 40 22 NO 1018,3 29 60
26.05.2017 13:00:00 22,1 11,3 27,2 28,8 20,9 15,2 24 13 44 24 NO 1019,2 31 60
26.05.2017 12:00:00 20,7 10,4 25,8 26,6 20,1 15,2 21 12 39 21 NO 1019,8 37 60
26.05.2017 11:00:00 19,8 9,9 23,6 24,1 19,5 15,2 18 10 35 19 NO 1020,2 47 60
26.05.2017 10:00:00 18,7 10,9 21,8 21,2 19,1 15,1 21 11 34 18 NO 1020,4 46 60
26.05.2017 09:00:00 17,0 11,2 20,1 18,6 19,0 15,1 22 12 31 17 NO 1020,7 25 60
26.05.2017 08:00:00 14,6 10,9 16,4 16,6 19,2 15,1 20 11 27 15 NO 1020,9 23 60
26.05.2017 07:00:00 13,3 10,5 12,7 16,3 19,6 15,1 17 9 24 13 NO 1021,1 36 27
26.05.2017 06:00:00 12,7 10,0 11,5 16,6 20,0 15,1 18 10 25 13 NO 1021,1 39 0
26.05.2017 05:00:00 12,9 9,9 11,5 17,2 20,5 15,1 15 8 25 13 NO 1021,0 47 0
26.05.2017 04:00:00 13,5 10,0 12,3 17,9 21,0 15,1 20 11 26 14 NO 1021,0 53 0
26.05.2017 03:00:00 14,0 10,0 12,5 18,6 21,5 15,1 14 8 23 12 NO 1021,0 64 0
26.05.2017 02:00:00 14,3 10,4 12,9 19,5 22,0 15,0 16 9 20 11 NNO 1021,0 61 0
26.05.2017 01:00:00 15,1 10,7 13,9 20,5 22,6 15,0 17 9 22 12 NO 1021,1 56 0
26.05.2017 00:00:00 16,3 10,9 14,6 21,6 23,1 15,0 11 6 18 10 NNO 1021,0 59 0
25.05.2017 23:00:00 17,2 10,7 15,5 22,9 23,7 15,0 13 7 17 9 NNO 1021,0 70 0
25.05.2017 22:00:00 17,9 10,8 16,3 24,5 24,2 15,0 12 6 22 12 NNO 1020,7 70 0
25.05.2017 21:00:00 19,7 10,7 18,9 26,6 24,6 15,0 16 9 31 17 NO 1020,1 70 55
25.05.2017 20:00:00 21,8 10,0 23,7 29,0 24,7 14,9 15 8 25 13 NO 1019,7 70 60
25.05.2017 19:00:00 22,7 9,5 26,2 30,8 24,5 14,9 18 10 30 16 NO 1019,7 52 60
25.05.2017 18:00:00 23,0 8,6 27,0 32,1 24,1 14,9 17 9 32 18 NO 1019,9 55 60
25.05.2017 17:00:00 23,0 8,6 27,3 32,7 23,5 14,9 19 11 32 18 NO 1020,0 42 60
25.05.2017 16:00:00 22,4 9,0 27,4 32,5 22,6 14,9 16 9 29 16 NO 1020,7 48 60
25.05.2017 15:00:00 21,9 8,8 26,9 31,5 21,7 14,9 15 8 38 20 NO 1021,3 51 60
25.05.2017 14:00:00 20,9 8,1 25,6 29,9 20,8 14,8 22 12 33 18 NO 1021,6 37 60
25.05.2017 13:00:00 19,8 9,4 24,7 27,7 19,8 14,8 17 9 29 16 NNO 1022,4 39 60
25.05.2017 12:00:00 18,9 9,5 23,9 25,1 19,1 14,8 16 9 25 13 NNO 1022,9 28 59
25.05.2017 11:00:00 17,8 10,8 21,8 22,2 18,5 14,8 12 7 24 13 NO 1022,9 24 60
25.05.2017 10:00:00 16,2 11,0 19,2 19,5 18,3 14,8 15 8 26 14 NO 1023,1 17 60
25.05.2017 09:00:00 14,4 10,7 16,5 17,4 18,3 14,8 22 12 29 16 NNO 1023,1 13 60
25.05.2017 08:00:00 13,6 11,2 14,7 16,0 18,5 14,8 17 9 26 14 NNO 1023,1 12 60
25.05.2017 07:00:00 12,9 11,5 12,2 15,7 18,8 14,7 14 8 19 10 NNO 1023,0 14 17
25.05.2017 06:00:00 12,4 11,2 11,0 16,1 19,2 14,7 12 6 16 9 NNO 1023,1 12 0
25.05.2017 05:00:00 12,7 11,4 11,1 16,7 19,7 14,7 9 5 16 8 NO 1022,8 11 0
25.05.2017 04:00:00 14,0 11,4 12,5 17,3 20,1 14,7 11 6 14 8 NNO 1022,7 19 0
25.05.2017 03:00:00 14,3 11,6 12,9 18,0 20,5 14,7 10 6 22 12 NNO 1022,9 19 0
25.05.2017 02:00:00 15,7 11,8 14,2 18,7 21,0 14,7 14 8 22 12 NNW 1022,9 18 0
25.05.2017 01:00:00 16,2 12,1 14,3 19,5 21,4 14,7 9 5 16 9 N 1023,2 23 0
25.05.2017 00:00:00 16,7 12,2 14,7 20,4 21,9 14,7 9 5 19 11 NNW 1023,2 33 0
24.05.2017 23:00:00 17,0 12,0 15,3 21,5 22,5 14,6 13 7 23 12 N 1023,3 39 0
24.05.2017 22:00:00 17,6 11,7 16,2 23,0 22,9 14,6 15 8 24 13 N 1023,1 45 0
24.05.2017 21:00:00 18,4 12,3 17,8 24,9 23,3 14,6 11 6 19 10 N 1022,7 55 0
24.05.2017 20:00:00 20,0 12,2 20,7 26,7 23,5 14,6 11 6 18 10 N 1022,2 70 5
24.05.2017 19:00:00 20,7 11,9 22,3 28,6 23,4 14,6 7 4 25 14 NNW 1022,1 70 19
24.05.2017 18:00:00 21,9 12,3 26,4 29,9 23,1 14,6 12 6 22 12 W 1022,1 68 44
24.05.2017 17:00:00 20,9 11,2 23,8 30,3 22,7 14,5 11 6 22 12 NW 1022,8 62 20
24.05.2017 16:00:00 20,7 11,1 25,3 31,2 22,0 14,5 8 4 21 11 W 1023,0 66 30
24.05.2017 15:00:00 21,2 11,3 25,2 30,7 21,2 14,5 8 4 21 12 NNW 1023,2 70 47
24.05.2017 14:00:00 20,3 9,9 25,7 29,2 20,3 14,5 10 5 20 11 WZW 1023,5 47 54
24.05.2017 13:00:00 20,0 9,9 24,4 26,5 19,5 14,5 6 3 20 11 W 1024,3 70 35
24.05.2017 12:00:00 19,0 10,4 25,3 25,3 18,7 14,5 7 4 18 10 W 1024,8 59 46
24.05.2017 11:00:00 18,5 9,6 22,5 23,0 18,1 14,5 6 3 14 8 NNW 1024,7 63 60
24.05.2017 10:00:00 16,8 7,5 20,7 20,1 17,7 14,4 6 4 11 6 NW 1025,0 53 60
24.05.2017 09:00:00 15,9 9,4 19,2 17,5 17,6 14,4 4 2 11 6 WZW 1025,0 60 41
24.05.2017 08:00:00 15,0 7,9 16,8 15,8 17,7 14,4 5 3 8 4 NNO 1024,8 70 18
24.05.2017 07:00:00 13,0 7,6 11,0 15,3 18,0 14,4 6 3 9 5 N 1024,5 70 0
24.05.2017 06:00:00 12,8 8,1 11,3 15,6 18,3 14,4 6 3 11 6 N 1024,3 70 0
24.05.2017 05:00:00 13,2 8,3 12,0 15,8 18,6 14,4 7 4 10 5 NNO 1024,0 70 0
24.05.2017 04:00:00 11,5 8,7 9,4 15,9 19,1 14,4 6 3 12 7 NO 1024,2 70 0
24.05.2017 03:00:00 12,7 8,7 9,6 16,7 19,5 14,4 9 5 17 9 NNO 1023,7 70 0
24.05.2017 02:00:00 14,5 8,2 13,0 17,5 20,0 14,4 14 7 27 14 NNO 1023,1 70 0
24.05.2017 01:00:00 15,3 8,6 13,9 18,3 20,5 14,4 16 9 30 16 N 1023,0 70 0
24.05.2017 00:00:00 15,2 9,2 13,7 19,3 21,1 14,3 16 9 25 14 N 1022,9 70 0
23.05.2017 23:00:00 16,1 10,2 14,8 20,7 21,6 14,3 15 8 26 14 NNW 1022,3 49 0
23.05.2017 22:00:00 17,9 11,0 16,4 22,3 22,0 14,3 10 6 19 10 NW 1021,3 42 0
23.05.2017 21:00:00 19,3 11,4 18,6 23,9 22,4 14,3 10 5 23 12 NW 1020,2 54 24
23.05.2017 20:00:00 20,2 13,2 20,3 25,8 22,5 14,3 14 7 34 18 W 1019,5 64 35
23.05.2017 19:00:00 22,0 12,8 24,0 27,5 22,4 14,3 23 12 37 20 WZW 1018,7 55 37
23.05.2017 18:00:00 22,9 12,3 26,7 29,2 22,0 14,3 16 9 34 19 W 1018,7 70 51
23.05.2017 17:00:00 23,3 10,6 26,4 29,5 21,5 14,3 22 12 39 21 W 1018,4 42 60
23.05.2017 16:00:00 23,5 13,0 27,3 28,6 20,9 14,3 24 13 42 23 W 1018,3 61 43
23.05.2017 15:00:00 22,4 13,4 24,9 28,3 20,3 14,2 22 12 39 21 WZW 1018,1 63 43
23.05.2017 14:00:00 22,6 13,1 25,9 27,4 19,6 14,2 17 9 37 20 W 1018,2 63 39
23.05.2017 13:00:00 22,2 13,0 25,8 26,7 18,8 14,2 16 9 33 18 W 1018,3 64 50
23.05.2017 12:00:00 21,6 12,0 25,3 24,5 18,0 14,2 16 8 25 13 W 1018,5 44 60
23.05.2017 11:00:00 20,7 13,5 24,0 22,0 17,4 14,2 9 5 19 10 WZW 1018,2 34 60
23.05.2017 10:00:00 18,9 14,1 23,1 19,4 17,0 14,2 9 5 13 7 ZW 1018,0 27 60
23.05.2017 09:00:00 16,6 12,0 20,8 17,2 16,9 14,2 5 3 11 6 WZW 1018,0 25 60
23.05.2017 08:00:00 16,0 11,0 18,7 15,4 17,0 14,2 6 3 9 5 W 1017,7 18 43
23.05.2017 07:00:00 13,6 10,6 10,7 15,0 17,3 14,2 3 2 5 3 O 1017,5 18 0
23.05.2017 06:00:00 14,3 10,5 12,3 15,3 17,7 14,2 4 2 8 4 ONO 1017,0 19 0
23.05.2017 05:00:00 14,9 10,3 11,7 15,8 18,0 14,2 5 3 9 5 ONO 1016,6 26 0
23.05.2017 04:00:00 14,6 10,4 12,3 16,4 18,4 14,2 6 3 9 5 NNO 1016,5 24 0
23.05.2017 03:00:00 15,4 10,4 12,8 17,0 18,7 14,2 5 3 8 4 NNO 1016,8 28 0
23.05.2017 02:00:00 16,3 10,6 14,1 17,7 19,1 14,2 4 2 9 5 ONO 1016,7 28 0
23.05.2017 01:00:00 16,6 10,5 14,8 18,2 19,6 14,2 6 3 11 6 NO 1016,8 41 0
23.05.2017 00:00:00 17,1 10,2 14,7 19,0 20,0 14,2 8 4 14 7 NO 1016,5 42 0
22.05.2017 23:00:00 18,5 9,6 15,5 20,2 20,5 14,2 5 3 7 4 NNO 1016,3 50 0
22.05.2017 22:00:00 18,8 9,5 14,8 21,5 20,9 14,2 4 2 8 4 WZW 1016,1 56 0
22.05.2017 21:00:00 19,2 9,4 16,5 23,5 21,2 14,2 6 3 10 5 ZW 1015,7 70 0
22.05.2017 20:00:00 21,3 8,3 20,9 25,6 21,2 14,2 5 3 14 8 ZZO 1015,1 70 26
22.05.2017 19:00:00 22,8 7,9 26,1 27,5 21,0 14,2 9 5 19 10 O 1015,1 70 60
22.05.2017 18:00:00 23,2 8,0 26,5 28,9 20,4 14,2 7 4 17 9 OZO 1015,4 67 60
22.05.2017 17:00:00 22,8 8,8 26,9 29,0 19,7 14,2 8 5 22 12 ONO 1015,6 58 60
22.05.2017 16:00:00 22,4 8,1 26,1 28,1 19,0 14,2 9 5 25 13 O 1016,1 67 47
22.05.2017 15:00:00 22,2 8,0 26,8 27,9 18,0 14,2 10 5 24 13 Z 1016,6 46 60
22.05.2017 14:00:00 21,6 8,8 25,2 25,6 17,1 14,2 12 6 23 12 O 1016,8 46 60
22.05.2017 13:00:00 20,8 8,4 24,5 23,3 16,2 14,2 11 6 26 14 O 1017,4 53 60
22.05.2017 12:00:00 20,1 8,9 23,4 21,1 15,4 14,2 14 7 28 15 ONO 1018,0 40 60
22.05.2017 11:00:00 18,9 9,9 22,2 19,0 14,8 14,2 9 5 20 11 OZO 1018,6 42 60
22.05.2017 10:00:00 16,7 9,6 19,1 16,4 14,3 14,2 10 5 19 11 ONO 1019,1 39 60
22.05.2017 09:00:00 13,8 9,0 16,7 13,8 14,1 14,3 13 7 20 11 NO 1019,3 34 60
22.05.2017 08:00:00 12,5 7,8 13,8 11,7 14,2 14,3 15 8 20 11 NO 1019,8 36 60
22.05.2017 07:00:00 11,2 7,6 9,8 11,2 14,5 14,3 16 9 21 11 NNO 1019,9 51 24
22.05.2017 06:00:00 10,2 7,1 8,5 11,4 14,8 14,3 16 9 18 10 NNO 1019,9 46 0
22.05.2017 05:00:00 10,5 7,1 8,8 11,8 15,2 14,3 16 9 19 10 NNO 1020,0 47 0
22.05.2017 04:00:00 10,9 7,1 9,3 12,2 15,6 14,3 16 8 18 10 NNO 1020,2 56 0
22.05.2017 03:00:00 11,4 7,1 9,5 12,7 15,9 14,3 16 8 19 10 NNO 1020,7 66 0
22.05.2017 02:00:00 12,0 7,2 10,1 13,3 16,4 14,3 14 8 21 11 NNO 1021,1 64 0
22.05.2017 01:00:00 12,6 7,2 10,7 14,0 16,8 14,3 15 8 17 9 NNO 1021,4 59 0
22.05.2017 00:00:00 12,9 7,4 10,8 14,7 17,3 14,3 13 7 19 11 NNO 1021,7 70 0
21.05.2017 23:00:00 13,6 7,3 11,7 15,7 17,8 14,3 14 8 23 12 NO 1021,8 70 0
21.05.2017 22:00:00 14,6 7,2 12,9 17,1 18,2 14,4 16 9 23 12 NO 1022,0 70 0
21.05.2017 21:00:00 16,4 6,9 14,7 18,9 18,6 14,4 16 8 28 15 NO 1021,9 70 35
21.05.2017 20:00:00 18,3 6,2 19,7 20,8 18,6 14,4 18 10 31 17 NO 1021,8 70 60
21.05.2017 19:00:00 19,1 5,8 21,4 22,2 18,5 14,4 17 9 26 14 NNO 1022,1 65 60
21.05.2017 18:00:00 19,3 6,6 22,3 22,9 18,3 14,4 13 7 25 14 NO 1022,5 70 52
21.05.2017 17:00:00 18,7 5,6 21,7 23,5 17,9 14,4 10 5 29 16 NO 1023,2 70 49
21.05.2017 16:00:00 19,4 6,0 23,0 23,5 17,4 14,4 16 9 31 17 NO 1023,8 46 45
21.05.2017 15:00:00 17,8 6,2 20,3 23,3 16,7 14,4 10 5 26 14 NNO 1024,5 70 46
21.05.2017 14:00:00 17,1 4,0 19,5 23,2 15,9 14,4 16 9 26 14 NO 1025,2 62 58
21.05.2017 13:00:00 17,7 4,7 21,5 21,7 15,1 14,4 13 7 22 12 NO 1025,8 53 60
21.05.2017 12:00:00 16,8 4,3 20,4 19,7 14,2 14,4 11 6 26 14 O 1026,6 53 59
21.05.2017 11:00:00 15,3 7,0 18,2 17,6 13,5 14,4 8 4 18 10 OZO 1027,0 46 60
21.05.2017 10:00:00 13,0 7,8 15,9 14,8 13,1 14,5 10 5 14 7 NO 1027,5 36 60
21.05.2017 09:00:00 11,0 7,5 14,1 12,2 12,9 14,5 9 5 12 7 NNO 1027,6 25 60
21.05.2017 08:00:00 8,9 7,0 9,3 9,9 13,0 14,5 9 5 13 7 NNO 1027,7 18 60
21.05.2017 07:00:00 7,4 6,9 6,4 9,5 13,3 14,5 8 5 10 6 NNO 1027,8 5 24
21.05.2017 06:00:00 7,3 6,9 5,6 9,6 13,6 14,5 7 4 9 5 NNO 1027,6 8 0
21.05.2017 05:00:00 7,3 6,9 5,3 10,0 13,9 14,5 6 4 9 5 NO 1027,6 10 0
21.05.2017 04:00:00 7,8 7,1 6,0 10,4 14,3 14,5 8 4 9 5 NNO 1027,6 12 0
21.05.2017 03:00:00 8,5 7,3 5,5 10,9 14,6 14,5 5 3 6 4 NO 1027,5 35 0
21.05.2017 02:00:00 9,1 7,5 5,4 11,4 15,0 14,6 4 2 8 4 NNO 1027,3 48 0
21.05.2017 01:00:00 9,8 6,5 5,9 12,1 15,4 14,6 4 2 11 6 WNW 1027,2 70 0
21.05.2017 00:00:00 10,2 6,7 6,5 12,8 15,9 14,6 9 5 11 6 ZW 1026,7 70 0
20.05.2017 23:00:00 10,0 7,1 7,6 13,7 16,3 14,6 10 6 14 8 ZW 1026,6 70 0
20.05.2017 22:00:00 10,4 7,0 7,6 14,9 16,6 14,6 8 5 13 7 ZZW 1026,2 70 0
20.05.2017 21:00:00 11,8 7,3 9,9 16,4 16,9 14,6 8 4 16 8 ZZW 1025,5 70 49
20.05.2017 20:00:00 14,0 6,6 16,0 17,5 17,0 14,6 8 5 14 7 ZZW 1024,9 70 19
20.05.2017 19:00:00 14,0 6,2 15,3 19,0 16,9 14,6 9 5 22 12 ZZW 1024,5 70 34
20.05.2017 18:00:00 14,1 7,0 15,7 19,4 16,7 14,6 14 8 22 12 ZZW 1024,1 70 8
20.05.2017 17:00:00 14,3 6,3 16,4 20,0 16,4 14,6 14 8 29 16 WZW 1023,8 70 35
20.05.2017 16:00:00 14,4 7,0 16,9 19,5 16,0 14,6 10 5 23 12 ZW 1023,3 70 9

tt = temperatuur
td = dauwpunt
tt 5cm = temperatuur 5cm
tt -5cm = temperatuur -5cm
tt -20cm = temperatuur -20cm
tt -100cm = temperatuur -100cm
ff = windsnelheid
fx = windstoten
dd = windrichting
ppp = luchtdruk
vv = zicht
sd = Zonneschijnduur

Weerstations in de omgeving